Terminal Aerodrome Forecast
Issued by NWS

Home | Current Version | Previous Version | Text Only | Print | Product List | Glossary On
Versions: 1 2 3 4 5 6 7 8 9 10 11 12
000
FTUS42 TJSJ 040544
TAFJBQ
TAF
TJBQ 040544Z 0406/0506 10015G22KT P6SM FEW020
     FM041400 08020KT P6SM SCT250
     FM042300 10012KT P6SM FEW030 SCT060
      AMD NOT SKED TIL 041100=

USA.gov is the U.S. government's official web portal to all federal, state and local government web resources and services.